Location: Star Hoppers Observatory
(42.7905°N, 83.6127°W)
Time: 08:02:02
(UTC-05:00)

NOSS 3-1 (A) - Visible Passes

Search period start: 17 January 2017 00:00
Search period end: 27 January 2017 00:00
Orbit: 838 x 1374 km, 63.4° (Epoch: 07 January)

Date Brightness Start Highest point End Pass type
(mag) Time Alt. Az. Time Alt. Az. Time Alt. Az.
17 Jan 5.8 03:56:34 18° NNE 03:56:41 18° NNE 04:01:44 10° ENE visible
17 Jan 4.8 05:44:01 18° NNW 05:49:33 47° NE 05:57:27 10° ESE visible
18 Jan 6.3 03:13:26 13° NE 03:13:26 13° NE 03:15:17 10° NE visible
18 Jan 5.2 05:00:53 24° N 05:04:28 35° NE 05:11:46 10° ESE visible
18 Jan 4.1 06:48:26 10° NW 06:56:04 72° WSW 07:04:24 10° SSE visible
19 Jan 5.4 04:17:48 25° NNE 04:19:14 26° NNE 04:25:46 10° E visible
19 Jan 4.1 06:05:15 18° NNW 06:11:18 81° NE 06:19:41 10° SE visible
20 Jan 5.9 03:34:47 20° NE 03:34:47 20° NE 03:39:29 10° ENE visible
20 Jan 4.5 05:22:15 28° NNW 05:26:25 58° NE 05:34:35 10° SE visible
20 Jan 4.7 07:10:17 10° NW 07:17:19 39° WSW 07:24:52 10° S visible
21 Jan 6.4 02:51:49 13° NE 02:51:49 13° NE 02:53:03 10° ENE visible
21 Jan 4.9 04:39:17 35° N 04:41:25 42° NE 04:49:06 10° ESE visible
21 Jan 4.2 06:26:46 17° NW 06:32:44 58° WSW 06:40:54 10° SSE visible
22 Jan 5.3 03:56:25 31° NE 03:56:25 31° NE 04:03:18 10° E visible
22 Jan 4.0 05:43:54 31° NW 05:48:03 83° WSW 05:56:27 10° SSE visible
22 Jan 5.3 19:36:29 10° SSE 19:37:05 12° SSE 19:37:05 12° SSE visible
23 Jan 6.0 03:13:39 20° ENE 03:13:39 20° ENE 03:17:11 10° E visible
23 Jan 4.2 05:01:07 51° NNW 05:03:15 71° NE 05:11:34 10° SE visible
23 Jan 4.9 06:48:36 15° WNW 06:53:53 30° WSW 07:00:51 10° SSW visible
23 Jan 5.3 18:54:47 10° ESE 18:54:50 10° ESE 18:54:50 10° ESE visible
23 Jan 5.0 20:40:15 10° SSW 20:42:21 24° SSW 20:42:21 24° SSW visible
24 Jan 4.6 04:18:27 51° NE 04:18:27 51° NE 04:26:19 10° ESE visible
24 Jan 4.4 06:05:56 30° WNW 06:09:22 45° WSW 06:17:13 10° S visible
24 Jan 3.9 19:55:58 10° S 20:00:05 40° SSE 20:00:05 40° SSE visible
24 Jan 6.0 21:47:05 10° WSW 21:47:36 12° WSW 21:47:36 12° WSW visible
25 Jan 5.5 03:35:53 30° ENE 03:35:53 30° ENE 03:40:43 10° ESE visible
25 Jan 4.0 05:23:23 58° WNW 05:24:45 67° WSW 05:33:03 10° SSE visible
25 Jan 5.6 07:11:02 10° WNW 07:14:42 14° WSW 07:18:28 10° SW visible
25 Jan 4.2 19:12:13 10° S 19:17:06 29° ESE 19:17:48 28° E visible
25 Jan 4.7 21:01:48 10° WSW 21:05:19 35° WSW 21:05:19 35° WSW visible
26 Jan 6.3 02:53:25 14° E 02:53:25 14° E 02:54:46 10° E visible
26 Jan 4.1 04:40:55 74° SE 04:40:55 74° SE 04:48:25 10° SE visible
26 Jan 5.1 06:28:26 21° W 06:30:24 23° WSW 06:36:31 10° SSW visible
26 Jan 4.8 18:29:19 10° SE 18:32:52 17° ESE 18:35:28 13° ENE visible
26 Jan 3.4 20:16:53 10° SW 20:22:44 80° NW 20:22:59 78° NNW visible
26 Jan 6.1 22:10:04 10° WNW 22:10:30 12° WNW 22:10:30 12° WNW visible
